Theta_e
318 318 319 319 320 320 320 320 320 320 320 320 320 320 320 320 320 321 321 320 320 321 320 321 321 321 321 321 321 321 318 322 321 321 317 319 325 329 329 331 330 331 330 317 315 314 312 313 312 314 313 312 311 311 313 312 313 311 305 303 300 303 301 305 304 305 308 306 308 309 310 309 309 315 320 326 322 322 321 324 326 332 332 336 337 337 339 339
318 318 318 319 319 320 320 320 320 320 320 320 319 320 320 320 320 320 320 320 320 320 320 321 320 321 321 321 321 320 320 323 319 318 318 326 329 330 332 330 332 328 326 315 313 313 312 311 312 313 311 310 312 310 313 309 312 306 306 304 301 304 305 308 308 308 308 307 308 309 310 310 309 312 319 317 317 320 318 320 323 327 332 336 335 336 337 338
317 318 318 319 319 319 319 320 320 320 319 320 320 319 320 319 320 320 320 320 320 320 320 320 321 321 321 321 321 317 320 319 320 314 317 330 332 333 331 331 330 326 318 314 315 315 313 313 313 312 311 310 310 309 311 309 310 309 306 302 304 307 307 308 309 308 310 309 308 308 310 310 311 312 318 315 313 314 315 315 318 322 324 335 335 336 337 336
317 317 318 318 318 319 319 320 319 319 319 319 319 319 319 319 319 320 319 320 319 320 320 320 320 320 320 321 319 323 324 318 310 312 320 333 332 333 331 330 330 325 319 315 316 315 315 314 313 312 310 309 310 310 307 310 307 309 306 303 305 308 306 308 309 310 310 310 309 309 310 309 311 313 314 314 312 312 316 318 316 316 317 335 335 335 336 335
317 317 317 317 318 318 319 319 319 319 319 319 319 319 319 319 319 319 319 319 320 320 320 320 320 320 320 321 318 323 319 308 308 316 324 333 334 334 331 332 328 321 316 315 316 315 314 313 312 311 310 308 309 308 308 309 310 308 305 307 307 308 306 308 309 310 309 310 309 308 307 308 314 314 313 314 310 309 314 318 319 319 321 336 335 335 335 335
316 317 317 317 317 318 318 319 319 319 319 319 319 319 319 319 319 319 319 319 320 320 320 320 320 320 320 319 324 324 313 299 310 315 337 335 334 334 333 333 328 319 316 314 314 314 312 312 311 309 308 307 306 305 308 308 309 303 307 308 308 308 306 309 309 309 309 308 308 307 309 311 311 311 314 314 312 315 318 319 322 322 325 335 335 336 335 334
316 316 316 317 317 318 318 318 319 319 319 319 319 319 319 319 319 319 319 320 319 320 319 320 320 320 320 318 326 317 310 311 315 325 335 336 335 335 334 332 329 316 315 313 313 312 312 310 310 308 307 307 306 306 307 307 309 306 303 307 307 308 307 309 309 309 309 308 307 310 311 309 309 307 313 314 317 318 325 325 326 327 330 334 334 335 334 334
316 316 316 316 317 317 318 318 318 319 319 319 319 319 318 318 319 318 319 319 319 319 319 319 319 319 319 324 318 312 310 309 319 332 338 336 334 332 327 318 316 316 314 313 313 312 311 309 308 308 308 305 306 306 307 306 308 305 305 307 307 308 308 310 310 309 309 309 310 310 308 308 310 309 313 316 318 318 327 327 328 330 331 333 335 335 335 333
316 316 316 316 316 316 317 317 318 318 319 319 319 318 318 318 318 318 318 318 318 319 319 319 319 320 315 316 313 309 308 315 318 332 332 328 325 322 318 315 317 314 313 314 314 313 311 309 309 310 305 306 308 306 307 305 304 306 305 307 307 307 309 309 309 309 309 309 309 307 307 309 310 316 312 315 315 318 325 327 330 332 331 332 334 336 335 334
315 315 315 316 316 316 316 317 318 318 319 318 318 317 317 317 317 317 317 317 318 318 318 319 318 318 321 315 313 307 311 322 325 332 328 326 323 317 316 318 316 315 312 313 313 312 311 311 310 311 310 307 308 306 307 306 304 307 306 307 306 307 308 309 308 308 308 308 308 306 306 307 312 311 306 315 318 319 327 327 331 330 331 334 336 336 336 335
314 315 315 315 315 316 316 316 317 318 318 318 317 316 316 316 316 316 317 318 318 318 318 318 320 320 321 314 310 308 315 321 328 329 328 324 318 315 316 315 316 314 313 313 312 314 313 312 312 312 309 307 307 307 307 306 308 307 307 307 307 308 308 309 308 307 309 308 308 308 307 309 314 311 307 313 322 325 324 324 328 327 330 332 335 335 336 336
314 314 315 315 315 315 315 316 317 318 318 317 316 315 315 315 315 316 318 318 318 318 318 318 318 325 317 311 311 313 315 319 326 325 324 319 316 317 317 315 315 314 314 312 313 313 313 313 312 310 305 310 305 308 307 308 308 307 307 303 305 307 306 308 306 307 308 307 311 311 307 306 310 308 315 317 323 323 320 323 326 325 328 330 334 333 334 334
313 314 315 315 315 315 315 316 317 317 317 316 314 314 314 314 315 317 318 319 318 318 318 318 319 325 318 310 315 317 319 322 323 322 321 319 317 315 314 314 314 314 314 313 312 313 313 313 312 309 310 308 307 303 308 309 308 308 307 305 303 304 304 307 308 308 307 309 311 310 299 303 309 313 315 323 323 320 319 321 323 324 327 329 331 331 333 334
313 314 314 314 314 314 315 316 316 316 316 315 314 313 313 314 316 319 319 317 316 318 318 318 325 322 316 312 314 316 319 322 321 318 317 317 314 313 312 313 314 314 314 313 313 314 312 314 312 311 312 307 306 312 307 307 308 303 305 305 301 300 301 306 307 306 305 310 312 311 300 303 307 312 318 321 321 319 317 319 322 323 325 328 330 329 331 333
313 313 314 314 314 314 315 316 316 315 315 314 313 312 312 314 318 320 316 319 319 319 319 320 326 319 314 315 320 322 332 320 316 316 317 314 312 312 312 313 312 313 314 314 313 313 314 313 311 307 307 311 310 306 304 304 305 305 301 299 303 300 302 305 308 306 303 310 312 308 302 303 307 312 315 319 318 318 317 317 320 322 324 327 328 328 329 330
313 313 313 314 313 314 315 315 314 314 313 313 312 312 312 314 320 319 319 321 320 320 324 324 319 317 312 309 317 330 318 313 314 318 318 316 315 313 315 313 313 313 313 312 314 314 313 312 307 308 307 308 306 304 302 301 302 304 301 299 299 301 301 302 306 307 306 307 308 308 301 305 305 312 315 317 317 317 317 317 320 321 323 325 326 328 327 328
313 313 313 313 313 314 314 314 314 313 312 312 311 312 314 316 318 320 320 319 323 324 324 319 318 318 308 316 319 313 314 317 318 317 317 317 316 315 314 312 311 311 312 312 313 312 311 308 310 308 308 305 306 304 298 298 298 300 303 300 301 299 301 299 305 307 308 307 304 307 304 305 307 310 317 319 316 316 316 316 317 320 323 325 327 327 326 328
312 312 313 313 313 313 314 314 314 313 311 311 310 312 314 317 317 317 319 321 327 325 323 321 317 313 311 317 309 312 318 317 317 317 316 317 317 315 314 311 312 311 311 309 311 308 310 306 308 303 305 305 304 302 297 294 298 299 300 299 300 302 301 300 300 305 305 306 304 305 304 304 307 309 313 317 317 315 316 316 317 318 322 325 325 326 327 327
312 312 313 313 313 313 314 314 313 312 310 309 311 309 314 313 320 322 318 317 314 313 311 313 312 305 304 309 315 316 316 317 318 316 314 315 315 316 315 315 313 310 307 306 307 307 308 306 307 302 299 301 302 302 299 300 301 299 300 299 299 298 299 300 304 307 305 303 303 303 302 304 306 307 310 316 317 316 316 318 318 319 319 323 325 325 327 327
313 312 313 313 313 313 313 313 312 311 310 312 316 319 319 315 315 313 314 313 309 309 310 311 314 313 313 313 313 317 318 319 313 315 316 317 314 312 312 312 311 311 308 303 305 306 308 301 299 299 301 302 303 303 303 303 302 301 301 300 299 299 300 303 304 305 306 303 303 304 304 304 305 307 309 310 318 317 317 316 318 319 319 320 323 325 326 328
314 314 313 313 313 313 312 311 311 310 309 315 318 311 305 302 303 303 304 306 310 311 310 310 311 310 310 313 313 313 310 312 315 314 316 319 316 313 309 310 308 305 306 307 305 308 306 300 300 302 303 304 304 304 304 303 302 300 300 299 299 300 299 303 303 305 306 302 302 305 304 304 306 307 309 310 313 314 317 318 319 319 319 320 322 323 324 329
314 314 314 313 313 312 311 311 309 309 308 319 312 306 306 305 307 308 305 302 309 311 311 311 312 309 313 312 314 314 311 308 310 313 316 317 313 310 310 309 307 304 309 307 306 303 301 298 302 304 306 305 304 304 303 302 301 301 299 299 298 300 302 304 304 305 305 303 302 304 303 304 306 307 309 309 309 312 315 317 319 321 320 320 320 321 324 326
313 313 313 313 313 312 310 309 309 306 318 312 308 307 304 309 312 312 308 304 303 310 310 310 308 309 310 313 313 314 307 306 306 312 313 314 311 311 311 307 307 307 308 306 302 301 299 301 305 307 306 304 303 303 302 302 301 300 300 298 297 300 299 297 303 303 305 303 302 303 302 303 306 308 309 310 310 311 314 317 319 320 321 321 320 321 322 324
312 312 312 312 312 311 309 308 307 313 312 312 307 306 309 312 312 311 306 304 304 308 310 311 310 311 310 309 312 311 308 308 309 308 316 312 309 312 310 308 307 306 305 306 305 302 301 304 306 305 304 303 302 302 301 300 299 301 300 299 299 299 300 300 301 304 304 305 305 303 301 302 305 304 306 310 311 310 313 318 320 321 321 323 322 321 322 324
311 311 312 312 312 310 309 307 311 308 311 312 307 310 312 313 314 312 307 308 309 308 314 312 311 312 312 315 313 309 309 309 310 313 315 313 310 309 308 312 308 304 305 307 306 304 303 306 306 303 303 303 302 301 301 301 298 300 302 301 301 301 300 301 302 301 300 300 303 301 296 297 304 305 305 308 309 309 311 312 316 320 322 322 322 322 323 325
311 311 311 311 310 309 307 313 309 309 309 309 309 312 313 314 314 314 308 303 300 307 310 306 314 308 316 309 311 310 310 306 312 314 314 314 316 310 309 306 308 303 306 306 305 306 305 308 306 303 303 303 302 301 303 303 299 298 300 304 303 302 301 301 300 300 296 294 301 304 295 292 302 302 305 307 307 307 310 311 312 313 319 323 322 321 322 324
310 310 310 310 309 308 308 303 309 310 305 308 311 314 313 313 318 311 306 302 296 306 305 309 311 308 313 310 311 310 301 304 311 311 311 314 310 314 306 306 307 307 307 308 304 301 306 305 305 305 304 302 301 300 303 303 300 297 303 303 303 301 300 300 300 300 298 303 303 303 301 295 296 301 306 307 306 306 308 309 311 311 314 319 323 323 323 322
309 309 309 309 309 308 310 311 309 304 305 311 313 312 314 315 315 316 307 289 290 308 304 307 309 314 312 310 311 307 307 310 305 308 312 313 313 309 306 305 305 305 306 305 297 306 306 303 303 302 302 302 301 303 305 305 301 301 303 304 302 302 302 302 301 300 300 299 296 299 302 296 296 302 307 307 304 305 306 308 310 311 312 315 321 322 324 323
308 309 309 309 308 308 314 312 309 305 310 312 312 314 314 316 313 307 298 287 306 304 312 305 314 312 310 310 307 308 308 309 305 308 311 311 314 309 304 306 307 306 307 306 301 303 304 305 305 304 302 301 304 306 306 305 301 305 306 305 304 304 303 302 300 300 300 298 293 297 301 295 295 301 303 306 304 304 306 309 309 311 312 312 316 322 324 324
308 308 308 308 310 314 314 316 311 311 313 313 315 315 315 313 310 299 290 286 307 300 306 308 307 303 308 305 306 307 306 307 308 309 309 308 309 309 307 310 307 305 303 306 304 305 305 308 307 304 302 304 306 307 306 306 306 307 305 303 303 303 302 303 302 300 298 291 295 299 300 299 292 298 301 303 305 306 307 309 311 311 312 313 317 321 323 323
308 308 308 308 309 311 311 309 310 313 315 316 315 315 313 311 300 292 285 296 302 304 307 304 302 306 303 301 302 305 305 306 307 307 305 307 306 307 307 305 307 304 303 303 302 304 305 304 302 305 307 307 307 304 307 307 306 305 302 301 301 300 302 301 300 301 292 290 297 300 300 300 291 296 303 307 308 308 308 307 309 311 311 313 318 319 320 321
307 307 308 309 312 313 307 302 311 316 316 316 315 310 307 294 299 289 290 303 294 304 303 301 303 302 302 302 301 301 300 304 305 305 304 305 304 303 303 301 304 298 297 299 299 304 302 302 305 306 308 305 304 302 305 305 305 302 302 301 296 294 295 291 297 290 291 291 299 300 300 296 296 300 302 305 307 309 311 311 310 311 311 314 316 320 319 320
306 306 306 311 311 313 314 315 316 317 317 316 312 308 299 291 284 295 296 299 296 303 301 302 301 300 301 300 300 301 303 300 304 304 304 304 304 303 305 305 304 301 295 304 301 300 302 306 305 305 306 307 306 300 302 300 302 301 300 299 296 291 290 286 291 294 295 298 302 300 300 295 300 302 305 305 308 309 311 313 314 314 315 316 317 320 317 319
305 306 312 314 314 314 314 317 316 316 314 317 309 302 298 288 288 304 297 299 301 302 302 299 300 301 301 298 299 300 298 301 302 303 304 303 303 302 304 305 305 303 301 301 297 300 293 297 303 304 302 305 305 304 304 302 303 303 305 302 299 297 293 286 291 288 290 294 298 300 296 294 295 300 305 309 310 312 314 316 316 318 319 321 321 319 317 318
305 310 317 318 318 317 316 316 317 316 315 309 303 298 288 288 295 295 297 300 302 301 300 302 299 298 297 300 301 300 300 300 302 302 302 302 301 302 301 302 305 305 303 297 303 300 298 298 303 305 304 306 303 306 306 304 303 305 304 304 300 298 302 293 296 295 295 294 293 297 294 301 301 308 309 310 309 311 313 313 316 317 319 319 320 320 322 322
308 314 316 313 312 314 316 315 316 315 314 304 298 292 290 295 294 299 298 298 300 298 299 300 299 296 296 298 300 299 301 299 300 300 300 301 302 302 302 303 302 304 303 298 303 296 299 297 304 305 307 305 306 306 306 306 295 302 301 298 300 305 302 296 297 301 299 294 291 298 299 301 307 307 308 309 308 309 313 314 315 316 317 318 316 317 319 325
310 312 308 310 310 314 316 315 314 315 311 302 295 290 297 299 298 298 300 298 298 299 300 293 296 295 296 295 298 297 299 300 299 298 297 299 300 302 302 303 304 305 306 304 302 303 296 297 305 304 302 306 309 307 306 306 306 303 298 302 306 307 305 299 290 293 291 289 290 298 295 297 298 293 307 309 308 308 310 312 314 316 316 316 317 318 318 318
310 310 309 309 308 315 316 315 314 312 306 298 292 295 299 296 299 298 299 299 299 299 296 294 295 296 293 294 294 295 299 294 297 297 296 298 296 303 302 302 305 305 306 308 301 303 303 294 301 303 303 306 308 308 303 306 308 303 302 307 299 292 294 301 294 287 287 287 289 295 297 297 298 299 305 306 307 306 308 311 312 313 314 314 316 317 318 319
312 309 305 307 310 314 316 316 315 308 300 293 293 290 297 297 299 298 300 299 300 299 294 296 294 298 297 294 295 296 297 292 296 296 292 297 293 302 301 301 302 305 306 306 303 304 304 294 297 303 302 305 306 304 295 302 307 307 308 304 306 301 298 295 294 297 296 288 288 291 295 292 302 304 307 307 308 307 307 308 310 311 313 313 314 316 316 316
306 302 301 310 311 312 316 316 311 303 298 290 293 295 298 296 297 300 300 300 299 297 297 296 298 294 297 297 296 295 297 294 294 295 294 297 295 301 300 303 300 303 304 305 302 304 299 305 290 300 305 304 297 302 300 302 300 301 302 301 302 303 305 302 301 297 294 289 290 289 288 295 302 307 307 308 309 309 308 307 308 310 312 314 314 315 316 317
309 301 301 311 310 312 315 312 303 297 295 298 297 296 295 296 298 299 300 300 301 301 297 298 297 295 297 295 296 298 295 296 295 293 295 296 296 293 301 301 302 301 304 303 302 303 295 298 292 297 297 296 297 305 303 302 302 302 301 300 301 299 297 293 291 301 298 294 289 289 288 297 306 309 309 309 311 309 310 308 309 309 312 313 314 316 317 318
303 296 299 309 312 312 308 301 300 303 299 296 295 296 296 301 298 298 299 302 300 299 301 299 299 297 297 296 297 297 295 294 296 295 296 294 301 298 300 303 303 304 301 298 301 304 302 300 296 291 294 296 301 304 305 304 303 301 302 300 304 304 302 296 288 293 299 299 299 297 292 294 308 310 310 310 310 310 311 311 309 309 310 312 313 314 316 318
300 295 306 309 313 309 305 300 303 299 297 300 301 299 300 299 299 301 298 300 298 300 299 298 298 297 299 297 298 297 299 295 297 295 298 298 299 300 301 302 304 303 303 302 302 304 303 298 294 295 298 300 302 303 304 305 303 302 302 303 302 299 300 298 297 299 295 297 295 295 290 295 309 312 311 311 311 311 311 311 310 310 310 311 312 313 314 317
298 299 302 309 313 310 301 291 292 296 299 301 300 299 302 301 301 299 298 300 300 300 299 299 299 301 300 301 301 297 301 290 298 296 297 299 299 303 302 302 303 303 300 301 297 303 292 297 296 291 290 292 296 301 301 303 303 300 299 302 301 301 300 300 300 301 292 296 296 292 286 293 309 309 310 310 309 309 309 310 310 309 310 310 311 311 312 315
299 305 302 305 310 307 298 301 298 296 299 299 299 297 299 300 302 301 301 300 302 301 300 298 299 302 300 303 300 301 302 297 294 300 299 299 300 302 301 301 303 303 303 304 303 304 296 295 293 286 283 281 281 283 287 291 296 299 299 300 302 300 299 297 292 294 289 295 296 291 290 300 306 309 307 307 307 308 309 309 309 309 309 310 311 311 312 313
297 287 299 300 305 304 303 305 302 298 297 298 293 297 299 297 300 302 301 301 302 302 301 300 300 301 299 300 298 298 298 301 297 297 298 297 299 301 301 301 300 302 304 303 303 304 296 299 297 293 290 288 291 293 298 298 297 293 297 297 298 300 301 300 297 292 289 293 291 294 295 296 299 302 302 304 305 305 304 305 305 305 307 310 312 312 312 312
298 294 294 291 299 301 299 301 299 299 295 299 289 297 295 296 298 299 302 297 302 300 300 300 299 297 297 298 296 297 299 298 300 298 297 298 299 299 302 301 300 302 304 302 303 301 297 293 295 296 294 294 296 295 297 296 294 295 295 295 297 297 298 298 293 290 297 292 286 294 296 292 294 298 300 302 303 303 303 304 305 306 307 309 309 310 311 312
292 298 299 301 291 291 293 295 298 298 298 298 295 298 295 295 297 294 300 300 301 302 297 299 298 298 298 297 298 293 296 296 297 293 298 298 297 299 298 301 298 304 302 302 303 299 295 289 294 294 293 295 296 295 297 296 296 296 296 295 295 297 297 295 295 297 297 290 288 294 297 294 295 297 300 301 302 303 303 305 307 307 307 309 310 309 310 311
299 298 297 301 293 297 296 297 297 296 296 297 296 297 294 295 294 298 298 298 299 298 299 290 296 297 297 299 297 294 295 291 290 297 296 297 296 296 295 297 299 301 301 300 300 301 296 291 294 294 293 293 294 295 296 295 295 295 294 295 296 296 296 296 295 297 296 293 295 295 295 296 298 300 301 303 305 304 305 307 307 306 307 308 309 310 310 311
293 294 293 298 298 295 296 296 296 295 293 296 290 295 295 295 294 296 298 297 292 296 299 295 296 297 298 297 299 295 296 297 297 293 298 297 296 297 295 296 295 299 299 297 297 300 295 288 294 293 290 290 293 293 293 293 292 291 292 293 293 294 294 295 295 295 296 295 295 294 293 293 299 302 303 305 306 306 307 306 306 308 309 309 309 309 309 309
299 301 300 293 291 294 295 295 294 293 291 294 291 293 294 294 294 296 296 298 297 295 297 295 298 298 298 298 298 297 300 299 299 299 299 299 292 297 295 295 298 295 296 295 296 297 296 290 295 292 286 287 292 292 292 292 293 291 291 291 292 292 290 292 291 295 293 291 293 293 291 291 298 302 303 304 305 305 304 306 307 309 309 309 309 309 308 309
300 303 303 297 290 293 291 295 294 292 287 294 294 294 293 294 294 296 292 298 298 299 298 297 298 296 296 296 295 297 300 301 301 302 301 301 302 301 301 300 299 296 295 295 297 293 294 291 287 288 284 284 290 291 290 291 290 287 288 291 293 293 293 293 294 295 294 295 291 288 290 297 298 301 300 301 302 303 306 306 307 307 307 308 308 308 307 308
Wind_Speed
19 19 19 19 19 18 19 19 18 17 16 16 16 16 16 16 15 15 14 14 14 14 14 12 10 8 8 7 6 5 7 6 5 7 8 3 8 12 11 11 13 12 11 8 7 8 8 7 6 5 6 7 5 4 6 5 2 4 6 4 4 3 3 3 5 4 6 7 7 7 5 8 9 3 3 3 8 9 6 7 4 5 4 2 5 3 4 7
19 19 19 20 20 20 20 19 19 18 18 18 17 17 16 16 16 16 15 14 14 14 14 12 11 9 8 6 6 4 6 6 8 8 9 6 8 9 10 13 14 15 13 9 11 10 8 7 5 6 6 5 3 1 5 4 5 6 4 4 4 1 2 3 5 6 6 6 7 8 6 7 8 8 2 7 7 6 9 9 8 8 6 6 5 6 7 7
18 19 19 20 20 20 19 19 19 19 19 18 18 18 17 17 17 17 16 15 14 14 14 12 11 10 8 6 4 3 6 7 7 5 4 5 11 9 12 13 15 14 13 8 9 7 2 3 4 6 3 2 5 2 6 4 5 5 6 5 3 4 6 6 6 8 7 9 10 10 8 8 8 7 2 8 11 8 9 7 6 7 7 10 8 8 8 8
18 19 19 20 21 20 19 19 18 18 18 18 18 18 19 19 18 17 17 16 15 14 13 13 12 10 9 7 2 5 6 10 6 7 5 8 11 10 12 13 14 15 8 6 6 5 3 3 4 6 2 6 5 3 6 6 7 4 6 5 5 7 8 5 6 5 8 8 10 11 10 10 9 7 7 7 8 10 10 7 7 6 4 11 10 10 9 9
19 19 19 20 21 20 20 19 19 19 18 19 19 18 19 19 19 18 17 15 14 13 13 12 11 11 9 7 8 6 7 9 6 5 9 9 11 10 10 12 12 11 7 6 6 5 6 5 5 4 6 3 2 4 6 2 5 5 7 7 7 7 8 6 7 7 7 7 9 10 11 10 5 6 9 9 9 8 8 9 3 4 1 11 12 11 10 10
19 19 20 20 21 21 21 20 20 19 20 19 19 19 19 18 18 17 16 15 14 13 12 12 11 10 8 5 8 7 7 3 2 4 9 10 11 10 9 9 11 8 8 10 8 6 6 5 7 5 4 4 3 5 7 3 2 7 6 6 6 6 9 8 9 6 6 7 9 9 8 9 8 10 8 10 12 8 3 5 1 1 1 9 10 11 11 11
19 20 20 21 21 22 21 22 20 19 20 20 19 18 18 17 18 17 18 17 15 14 12 11 10 10 8 7 7 7 7 4 4 7 10 10 10 11 10 8 7 8 10 9 8 7 6 3 4 1 3 4 4 4 1 2 6 8 8 7 7 7 9 10 11 9 7 9 11 10 9 11 10 14 6 11 13 11 4 4 3 4 6 10 11 11 11 11
20 20 21 21 22 22 22 22 22 21 19 19 19 17 18 18 18 18 17 17 15 14 13 10 9 9 6 6 7 5 6 2 8 7 10 9 10 11 11 9 10 9 10 10 7 6 4 3 2 0 5 5 6 4 2 7 8 7 7 6 9 8 10 11 10 10 9 10 10 10 12 13 11 11 8 13 14 9 8 6 7 7 8 8 10 11 10 10
21 21 21 21 22 23 23 23 23 22 20 20 19 20 18 17 18 18 16 16 15 13 11 11 10 8 3 5 6 8 2 6 3 9 12 11 13 13 14 9 11 10 9 7 5 1 6 3 2 4 4 3 3 4 1 7 2 1 7 10 11 12 12 11 11 10 7 6 5 8 12 12 9 5 12 18 16 10 8 8 8 9 9 9 10 10 10 10
21 21 22 22 22 23 24 24 23 22 21 20 20 20 19 18 16 17 17 14 13 11 9 8 8 6 6 6 6 7 4 4 6 8 10 10 12 13 14 8 12 11 9 7 4 4 4 3 4 2 4 4 1 4 4 6 6 7 9 11 13 14 12 9 9 9 5 6 4 8 10 8 4 4 7 8 9 8 10 9 9 9 9 9 9 9 9 10
22 22 22 23 24 24 25 24 24 23 22 22 20 19 19 18 16 17 15 11 9 8 7 6 6 6 6 5 7 5 4 5 4 7 10 10 12 13 13 8 12 10 8 6 6 3 2 2 1 2 6 2 4 5 6 3 4 8 10 13 13 10 9 8 6 2 5 1 1 7 10 6 6 7 12 3 2 8 10 10 10 10 9 9 10 10 9 9
23 23 23 24 25 25 26 25 24 24 23 21 20 21 21 20 17 14 11 8 5 3 5 6 6 6 6 7 8 4 6 4 6 7 9 11 11 9 7 8 10 9 8 7 5 2 1 1 4 5 5 4 7 8 3 1 8 8 11 12 11 12 11 5 2 4 4 2 4 5 10 12 9 10 13 3 4 6 8 9 10 10 9 9 10 9 9 9
23 23 24 24 25 26 27 26 26 24 23 21 21 21 21 18 14 10 8 6 1 4 5 6 6 5 6 8 5 8 6 6 6 7 8 9 6 3 2 4 8 6 5 6 2 3 2 1 3 8 3 6 8 7 8 11 9 10 10 7 12 9 8 9 2 1 5 4 5 4 8 2 11 14 3 6 5 7 8 9 10 9 9 8 9 9 10 10
24 24 24 24 25 26 26 26 26 26 23 22 21 20 20 15 11 7 3 3 2 3 6 8 6 6 6 8 4 4 5 3 7 9 10 9 8 7 3 5 5 3 1 2 2 1 2 1 4 6 5 8 6 6 12 9 8 9 8 8 9 7 2 7 3 2 7 4 2 5 8 6 2 7 7 5 5 7 7 8 9 9 9 8 9 9 9 11
24 24 24 25 25 26 28 27 27 26 25 21 21 20 19 11 8 3 2 2 3 5 6 6 6 4 6 4 8 5 4 5 8 10 10 12 10 7 8 8 6 4 1 0 1 1 1 2 5 7 7 3 7 10 10 10 7 6 8 8 7 7 4 1 4 2 8 4 2 8 8 5 10 6 5 5 5 6 7 7 8 8 9 9 9 9 9 10
24 24 25 25 26 27 28 26 27 28 28 24 21 21 13 7 3 5 3 6 4 6 6 5 6 6 8 10 4 9 7 7 10 11 10 11 11 8 9 7 6 5 4 2 1 2 2 3 7 5 7 7 10 10 9 8 9 7 8 7 9 6 6 8 8 0 1 7 3 4 9 11 7 6 5 5 4 6 7 7 7 9 10 10 9 9 9 9
26 25 24 25 26 28 27 27 26 29 28 26 23 14 7 4 4 5 7 6 4 4 4 3 2 4 6 5 3 6 6 7 7 8 10 10 9 5 9 9 7 8 5 3 4 3 4 6 3 6 7 9 9 8 9 9 8 8 5 7 7 8 7 8 5 5 1 5 10 8 9 11 13 11 7 6 4 6 7 7 7 8 9 10 9 10 10 10
25 25 25 25 26 27 27 26 27 28 28 26 22 11 3 3 6 5 5 5 2 3 3 2 3 4 9 5 5 1 6 6 6 6 9 8 8 9 9 9 6 9 8 6 6 8 6 7 6 9 7 6 7 9 9 9 6 6 5 7 8 8 8 10 10 6 6 8 12 11 12 12 12 12 5 5 6 6 7 7 7 8 9 10 10 10 11 10
26 25 25 25 25 27 26 25 26 27 27 26 16 1 3 4 6 5 4 3 4 4 5 6 5 5 6 3 4 2 3 6 5 7 8 10 9 8 7 5 7 9 9 9 6 10 7 8 6 9 12 11 10 10 11 11 12 11 10 9 10 10 9 9 8 8 5 11 11 12 10 10 12 13 3 5 6 7 7 7 7 8 8 9 10 10 10 10
23 25 23 24 23 23 24 25 24 26 25 18 8 2 5 2 4 4 4 6 9 10 12 7 8 11 15 11 8 2 3 5 5 7 8 9 9 11 10 9 9 9 10 8 7 9 4 9 11 11 11 12 11 8 10 11 11 11 11 12 11 11 13 12 14 2 2 8 11 10 10 11 13 13 12 3 5 7 7 8 9 8 8 9 10 11 11 11
22 23 26 26 25 24 25 26 25 24 24 12 12 5 5 8 7 4 11 13 12 8 10 12 11 13 13 5 2 4 5 11 10 6 8 9 9 11 10 10 10 11 12 12 9 7 6 11 13 14 13 11 6 7 9 10 10 12 12 12 11 12 11 11 13 4 1 5 11 12 11 13 13 12 12 2 6 9 8 8 10 9 9 9 11 12 12 11
23 25 25 27 26 24 25 25 24 21 21 9 9 8 6 8 5 6 5 8 6 12 11 12 9 12 11 11 10 8 5 6 8 10 6 9 10 12 11 12 13 12 9 10 8 7 8 13 12 10 6 5 9 9 9 11 12 11 10 10 11 10 12 12 14 2 2 5 9 12 13 13 13 13 12 11 9 8 6 8 8 8 9 9 10 11 11 10
23 25 26 26 25 23 26 25 22 17 7 9 8 7 6 6 6 3 6 9 12 10 6 8 7 10 7 3 1 6 10 12 10 11 10 10 10 15 9 11 12 11 8 10 10 9 10 10 15 10 7 9 10 9 9 11 12 11 10 10 11 9 9 8 5 6 5 6 10 12 14 12 14 14 13 13 10 7 5 7 8 8 10 11 11 10 10 12
23 25 25 26 26 25 27 23 20 9 7 5 6 8 3 5 7 3 5 6 9 4 6 4 4 2 1 2 5 8 9 6 7 9 10 11 12 8 13 13 13 11 11 12 14 12 10 2 6 2 4 5 7 6 8 7 9 10 12 12 11 10 11 11 9 9 12 14 10 10 10 11 11 12 11 7 2 5 6 6 8 9 10 10 10 10 11 12
24 24 25 25 27 26 28 22 4 8 9 3 3 4 4 6 7 3 5 7 6 5 5 4 4 1 3 2 4 7 4 2 9 1 7 12 14 7 13 10 10 13 13 13 13 14 14 6 4 4 6 7 9 9 9 9 10 10 11 12 12 13 13 14 11 8 9 11 5 8 10 9 8 5 7 7 6 8 6 7 8 9 11 11 12 13 11 12
23 24 23 23 26 26 31 7 7 11 11 2 5 5 5 7 6 4 4 5 6 4 5 5 4 4 2 4 4 2 4 5 4 4 7 9 10 10 5 8 8 12 13 13 11 8 7 5 8 10 11 11 11 10 10 9 10 10 7 6 10 12 12 11 11 8 10 10 2 4 12 11 9 12 9 9 10 10 9 9 11 9 10 11 12 12 12 13
23 24 24 23 23 24 11 4 10 13 7 4 4 6 8 8 3 5 4 4 4 3 2 5 4 5 4 4 3 4 6 6 3 3 7 6 10 5 9 9 7 5 4 1 2 9 9 12 11 12 12 11 10 9 9 10 9 10 6 5 9 10 10 10 10 10 11 11 12 9 9 13 12 9 12 9 10 12 12 13 12 11 10 12 12 12 12 12
24 23 23 24 22 16 5 7 9 8 6 5 7 9 9 6 1 4 4 3 1 2 3 4 4 1 3 2 4 6 8 5 6 4 3 6 9 7 10 11 9 9 9 6 11 4 8 8 10 9 9 8 9 8 6 6 9 8 1 5 8 9 10 10 10 10 11 10 12 11 7 10 11 8 8 8 11 11 12 12 11 11 10 12 13 12 13 13
24 25 23 22 25 17 7 5 7 6 5 8 9 9 6 4 5 4 3 4 2 1 2 2 1 2 5 4 6 3 5 0 6 5 4 4 9 4 9 13 8 6 8 12 10 5 3 4 6 7 7 8 8 8 8 8 10 9 9 6 9 9 11 12 11 11 12 9 12 12 10 11 13 9 11 4 5 9 9 9 8 5 7 6 7 10 11 11
21 23 23 20 18 4 3 5 7 4 6 7 9 9 6 4 5 5 1 5 4 3 1 3 3 4 7 5 5 2 2 4 3 4 6 3 10 6 2 5 6 9 9 10 12 13 2 3 4 6 8 9 9 8 7 10 13 7 7 11 11 12 11 10 10 10 11 12 14 15 17 13 13 9 8 7 2 5 9 7 3 4 4 4 4 6 7 9
21 21 21 18 7 6 6 5 4 3 6 7 9 9 3 4 5 2 4 1 4 3 3 2 3 3 5 7 2 5 1 3 3 2 6 4 9 8 2 5 4 7 8 9 11 13 12 8 5 7 12 10 9 12 10 11 11 10 8 9 9 10 11 10 10 9 10 12 14 18 13 11 12 7 3 3 2 5 7 9 9 8 8 7 1 4 5 7
23 23 20 12 6 5 5 6 11 8 6 9 9 4 5 5 4 6 2 5 8 4 4 3 3 6 5 4 3 6 5 0 6 3 3 4 5 6 6 6 2 7 9 9 9 8 10 11 10 10 6 10 10 10 9 9 9 9 9 9 9 8 7 8 8 9 9 9 4 3 3 9 13 12 13 16 11 10 7 7 9 10 11 11 6 3 3 4
25 23 23 10 5 5 7 8 8 7 8 9 6 5 6 3 5 8 9 1 0 5 4 4 4 7 6 8 1 5 1 3 6 1 3 1 6 6 7 5 5 5 8 2 5 3 7 6 9 8 6 8 10 9 6 8 7 8 8 7 8 8 8 9 9 8 11 12 9 2 3 10 8 12 11 10 12 8 5 6 7 10 12 13 10 4 4 5
26 23 11 5 5 6 6 7 6 7 8 5 6 6 6 3 5 4 7 6 3 1 3 3 7 6 3 5 3 6 3 4 4 2 4 2 5 4 5 8 9 2 6 8 8 6 5 6 5 6 4 4 6 9 7 9 4 6 6 8 9 10 9 10 9 10 10 11 1 6 6 6 9 3 3 6 4 5 5 5 7 9 11 10 7 6 7 7
29 20 9 6 5 4 5 6 5 3 5 5 6 8 5 8 8 4 5 1 2 3 4 4 8 8 6 3 2 3 5 1 4 2 1 4 2 1 2 4 8 7 2 6 3 1 9 9 5 3 5 3 2 3 5 7 9 6 3 6 9 10 7 12 9 11 10 9 10 6 5 5 7 5 5 5 4 7 7 10 8 9 12 13 13 13 10 7
19 7 7 2 4 5 4 3 2 4 4 5 6 7 10 5 3 1 1 3 1 4 6 8 6 8 6 3 3 1 4 6 5 4 3 2 3 1 4 5 6 8 5 4 4 6 1 6 5 3 2 1 4 5 5 4 6 3 6 8 5 6 7 7 9 7 6 7 10 5 12 10 9 12 13 14 11 7 13 14 15 14 14 14 14 15 14 8
9 9 2 4 5 7 4 2 1 3 4 6 7 8 7 1 4 2 3 4 5 5 4 5 2 3 2 2 2 2 3 4 1 4 3 2 4 5 4 5 5 5 6 5 2 3 6 7 6 6 6 7 4 3 5 6 7 8 10 7 6 3 3 5 9 6 7 11 8 10 12 11 11 6 4 9 10 13 12 13 14 14 15 15 14 15 15 14
10 7 4 3 8 4 2 1 3 4 5 6 8 8 4 5 3 3 4 4 3 2 5 5 2 1 5 5 3 2 4 6 3 3 2 1 2 3 1 2 5 6 5 2 5 3 4 7 1 4 3 6 6 6 6 5 5 9 9 6 9 5 10 6 4 8 10 13 9 11 12 11 9 8 3 8 9 11 12 13 14 15 15 16 16 17 18 17
8 6 2 4 7 6 2 4 5 4 5 6 8 6 3 2 4 3 5 4 2 4 5 3 6 1 3 4 3 0 3 4 4 2 4 2 3 4 3 4 2 6 3 4 5 4 4 5 4 6 4 4 7 4 8 4 7 6 5 9 4 7 9 12 7 11 10 14 10 13 15 13 8 3 5 6 8 9 10 12 13 14 15 16 16 16 18 18
6 4 2 3 7 7 3 5 4 4 5 6 6 6 4 1 2 2 2 3 1 3 2 4 3 5 4 3 1 3 2 4 4 2 4 1 1 3 2 1 4 4 4 4 4 2 5 0 7 4 4 4 8 6 6 5 7 8 7 8 5 6 4 6 8 10 10 11 11 10 11 8 2 4 5 4 5 7 8 9 11 12 13 15 17 16 16 17
4 4 2 5 9 8 6 5 5 6 7 2 2 3 2 3 1 1 1 0 3 2 6 4 4 5 3 2 5 2 4 3 2 4 4 2 4 2 4 4 3 5 4 5 4 3 4 6 8 8 8 7 8 3 5 8 7 8 9 10 8 10 10 11 12 9 11 10 9 8 12 11 6 2 5 3 2 5 8 9 10 12 14 15 15 16 16 15
7 4 4 9 8 9 6 5 4 1 3 5 2 1 1 4 5 2 2 3 5 3 3 4 3 5 5 6 6 2 4 5 5 5 4 6 4 4 5 3 3 4 5 4 4 6 4 5 8 9 9 10 8 9 5 8 11 13 11 11 6 7 5 9 13 10 9 8 11 12 12 11 7 8 4 5 4 6 8 10 10 12 13 13 14 17 16 16
4 6 9 6 7 7 5 5 2 4 6 1 2 4 1 4 3 1 4 1 5 1 3 5 4 4 6 6 3 6 5 5 4 5 1 3 4 5 4 2 3 1 4 1 4 2 3 5 8 9 8 8 8 5 6 7 7 7 6 2 4 7 6 8 10 9 8 10 10 8 11 8 7 8 2 4 8 9 9 10 12 11 10 12 15 16 16 16
6 6 4 1 5 5 5 3 3 4 4 3 5 3 2 3 3 5 6 2 3 1 3 2 3 5 3 3 4 5 4 4 3 6 5 4 3 5 3 2 2 1 4 2 4 6 4 3 4 7 8 7 6 5 5 4 6 5 4 3 4 5 5 6 8 7 9 13 17 13 15 9 6 6 6 10 11 12 13 13 13 15 12 11 12 14 14 15
7 5 5 4 2 3 4 3 4 2 2 3 3 7 5 5 4 5 4 5 1 5 3 6 4 0 4 2 5 5 5 7 5 3 4 3 3 5 4 2 2 1 2 6 4 4 5 7 6 7 8 9 8 7 5 1 4 4 6 6 5 7 9 8 9 8 12 12 15 12 12 11 11 9 17 20 19 18 17 16 16 15 15 14 12 12 13 13
3 3 1 1 3 1 2 1 3 4 3 2 3 5 4 7 4 4 4 7 5 4 6 6 4 4 6 4 7 7 8 7 7 3 4 5 5 4 1 1 1 4 2 2 4 4 5 7 8 10 11 12 11 12 10 11 10 11 12 14 14 12 11 9 10 11 13 12 13 16 18 16 18 18 19 21 21 24 24 21 17 15 15 13 12 11 11 11
4 3 3 2 4 2 2 2 1 3 2 3 3 2 5 6 4 3 5 6 3 5 5 4 4 4 6 7 9 8 8 7 7 8 8 7 5 2 3 4 3 3 3 4 2 5 8 9 10 13 16 17 17 17 16 14 15 16 17 18 18 17 16 15 12 16 11 11 16 14 16 17 16 16 17 18 17 19 20 20 20 16 13 13 14 15 15 13
2 3 3 4 3 2 2 2 5 3 2 4 4 1 5 3 4 4 4 6 2 3 5 4 7 8 7 6 5 5 6 8 9 7 8 7 8 7 9 8 7 5 5 6 4 7 7 7 9 9 13 15 16 18 16 15 16 17 18 18 19 18 18 19 19 20 19 14 17 19 18 19 19 18 17 17 17 16 17 18 17 18 18 17 16 17 16 15
2 3 2 4 3 1 2 6 6 6 6 3 4 3 6 6 7 4 3 1 5 4 5 4 5 4 4 4 6 8 7 6 6 8 8 7 7 7 8 8 8 5 7 6 4 2 5 8 10 11 14 15 16 16 14 15 16 17 19 19 19 19 19 20 21 21 23 22 21 23 25 25 20 18 18 18 16 17 16 13 14 16 16 16 17 17 16 15
2 3 1 3 4 5 4 5 4 4 6 2 2 4 3 6 7 7 4 6 5 6 1 8 8 5 4 4 7 8 7 6 7 6 5 5 6 7 9 8 7 5 5 6 4 3 3 5 3 8 12 16 16 14 13 15 16 18 19 20 20 18 18 19 20 20 22 23 23 25 26 23 16 17 17 16 15 13 13 14 14 15 16 16 16 16 16 15
4 3 4 4 5 3 3 5 4 4 4 5 6 6 4 6 6 3 7 3 6 8 5 6 2 4 3 6 7 10 1 2 1 4 5 7 9 6 5 2 1 6 6 7 6 8 6 9 10 10 11 14 13 12 12 12 13 16 20 21 18 17 19 17 16 16 18 18 19 21 20 17 13 12 11 11 12 13 14 14 13 12 14 16 16 16 16 16
5 3 4 4 5 2 4 1 4 4 4 3 3 3 2 3 2 5 6 4 1 2 3 3 3 4 6 5 11 5 3 3 3 5 6 5 6 7 7 10 9 9 8 9 8 9 8 9 8 8 11 13 14 13 12 10 12 16 20 16 18 20 19 19 19 20 19 16 15 14 16 14 14 11 13 14 14 13 12 11 13 15 15 16 17 16 15 14
Wind_Direction
357 355 353 350 347 343 344 343 340 336 334 332 328 324 321 319 316 311 310 308 305 304 306 307 310 313 314 319 319 327 307 268 249 235 224 272 79 127 142 125 149 156 175 189 167 180 174 176 170 173 192 203 133 202 110 214 228 230 227 246 241 248 249 28 308 315 344 283 308 304 338 306 295 263 197 227 241 246 258 242 228 214 204 102 102 116 130 145
355 352 351 348 346 344 343 341 339 334 332 330 326 323 319 315 313 309 306 305 304 304 304 306 306 310 314 309 308 338 285 261 268 253 249 94 124 147 149 148 148 164 191 186 183 183 167 167 163 190 193 186 149 167 180 161 209 239 253 261 279 297 31 308 301 282 287 287 308 306 292 293 291 303 98 271 267 248 255 239 230 232 191 145 137 141 159 165
352 350 348 346 344 342 340 337 334 332 328 326 325 321 319 315 310 306 303 302 302 303 302 302 304 306 305 298 303 258 271 259 251 226 104 89 134 155 156 154 156 173 195 186 188 191 210 124 154 229 208 248 177 166 218 135 220 226 284 271 235 55 322 292 275 287 279 298 291 300 303 286 291 271 276 260 290 271 262 288 219 234 217 180 161 157 164 180
349 348 345 344 342 339 336 332 329 330 325 322 321 319 316 315 308 306 303 301 300 299 300 299 302 303 299 291 284 261 242 285 238 116 95 130 145 156 164 160 164 183 208 221 181 201 194 182 206 246 209 252 129 237 226 150 246 109 253 257 316 343 309 317 321 293 298 293 290 290 299 282 277 258 252 261 273 274 258 242 288 297 324 159 163 162 166 178
347 346 344 341 339 336 331 328 326 325 325 322 316 317 314 311 309 304 303 299 300 297 295 298 299 300 296 287 275 240 288 275 100 99 115 139 146 163 166 165 172 184 204 160 176 174 204 206 208 224 250 220 166 204 242 168 261 304 273 312 311 306 287 325 322 321 303 294 283 280 277 284 324 258 240 245 250 273 347 358 303 279 349 155 163 163 170 174
346 344 343 340 338 334 330 327 324 321 320 318 317 314 309 304 301 302 301 300 296 297 291 292 295 295 296 281 261 240 275 343 85 140 118 148 154 154 160 168 188 222 172 174 189 179 196 191 224 204 191 244 141 265 86 305 158 265 225 237 296 309 303 312 308 322 284 279 266 274 279 286 263 268 247 245 246 256 225 235 301 325 153 154 157 157 171 177
345 344 342 339 337 333 330 327 324 321 318 316 311 306 309 308 306 301 299 298 295 292 291 286 288 289 294 301 247 253 260 305 187 103 111 153 152 144 151 163 211 200 185 184 197 193 205 200 250 102 241 228 140 277 53 281 219 254 298 312 303 319 293 306 304 305 272 264 274 281 289 271 272 269 274 245 243 250 176 162 131 127 133 145 154 167 173 178
345 343 341 339 336 333 329 326 323 320 317 313 311 315 315 305 299 298 297 294 294 286 284 281 280 280 303 242 245 237 233 235 91 97 120 137 151 144 152 175 193 190 195 199 191 206 191 215 251 311 244 315 58 272 65 286 221 249 261 334 315 298 288 290 297 293 293 279 274 275 268 265 267 275 283 255 255 252 186 158 143 140 148 155 162 167 172 170
346 343 341 339 336 333 330 325 322 321 317 318 317 316 309 304 297 297 295 293 290 287 277 275 268 276 214 279 277 286 203 67 62 123 137 156 160 158 168 174 195 194 202 208 218 245 240 123 239 313 8 285 115 271 150 317 194 168 318 308 308 300 304 305 299 296 310 293 281 266 263 268 270 325 266 262 261 245 192 177 155 150 163 170 172 168 171 171
345 343 340 339 337 333 331 325 322 319 320 320 319 316 312 305 299 296 298 294 290 287 278 267 268 245 246 242 267 272 81 120 126 142 153 162 159 166 186 184 182 197 200 192 192 209 266 67 331 19 299 263 239 283 323 259 334 333 305 307 304 299 295 297 299 315 311 285 275 271 277 279 182 234 270 252 245 204 182 188 171 174 177 173 169 168 173 172
346 344 341 338 337 335 331 326 323 321 322 322 321 318 312 311 311 304 302 299 294 284 277 259 249 227 233 235 274 295 117 151 140 146 158 164 167 177 190 191 188 199 207 174 207 232 35 260 292 264 239 31 277 257 265 12 326 296 312 304 286 284 278 277 275 303 311 197 276 273 278 260 209 222 253 307 86 163 205 194 188 195 189 182 170 172 171 173
347 344 342 339 338 335 332 327 324 322 323 322 324 320 316 318 314 308 304 311 296 267 239 228 207 239 271 249 251 300 151 112 155 149 157 169 182 197 196 195 194 210 206 190 200 161 285 356 260 278 322 3 269 307 265 328 296 306 302 295 309 298 274 196 302 352 308 30 308 305 270 236 202 225 236 223 153 187 216 207 199 202 197 187 172 178 174 178
347 345 343 340 338 336 333 328 324 322 322 324 326 322 319 319 314 312 325 304 66 216 202 190 206 256 261 251 248 93 134 118 144 156 158 185 181 182 204 216 212 229 251 269 150 147 154 240 287 279 316 297 302 295 355 290 287 294 270 295 295 285 258 125 148 11 283 66 319 292 284 250 199 223 145 156 190 203 215 215 207 198 195 191 184 188 180 172
347 345 343 341 339 337 333 329 324 323 321 325 327 322 321 317 312 322 350 338 312 158 168 173 228 238 240 266 97 114 137 151 143 169 176 176 193 182 187 202 219 238 244 270 87 79 202 257 279 282 293 271 294 9 279 275 249 274 309 280 269 277 232 126 355 350 289 96 290 288 290 305 15 138 148 174 193 209 227 227 216 205 196 190 193 199 187 176
347 346 343 341 339 337 334 329 325 323 324 324 327 325 317 311 319 4 104 116 48 130 144 184 231 228 219 248 104 88 104 159 183 186 176 174 190 174 196 177 196 197 143 23 123 132 170 190 255 259 249 166 282 273 276 270 267 266 275 249 213 237 259 126 115 107 311 111 256 297 267 309 324 93 137 171 200 217 237 237 226 217 206 193 198 205 196 186
346 346 344 342 339 338 334 330 325 325 325 325 327 323 313 295 14 66 18 56 94 143 186 215 193 251 293 270 113 135 170 195 215 193 181 191 186 204 167 178 170 173 205 170 221 172 208 248 256 319 299 246 249 261 278 280 253 213 242 269 276 281 291 293 139 252 95 329 261 264 307 304 288 110 161 166 213 231 240 231 226 220 213 205 202 201 208 190
346 345 344 342 340 337 334 330 326 325 324 324 325 316 303 244 111 102 105 143 156 208 245 298 172 206 265 77 155 214 210 181 84 166 176 205 203 166 154 160 183 172 165 142 186 191 172 239 179 240 224 266 275 289 284 270 263 248 223 266 275 282 292 274 129 151 153 317 311 290 277 284 294 294 162 177 217 237 241 239 224 213 212 208 205 206 206 199
345 343 343 342 340 337 334 330 327 324 323 323 320 307 285 153 154 161 166 215 173 228 232 267 248 261 229 224 228 92 71 137 188 151 178 179 210 180 180 181 158 167 168 168 161 224 171 234 209 263 251 239 238 248 257 267 295 325 315 290 275 268 266 278 282 110 300 315 296 292 278 277 286 294 166 200 211 237 244 241 229 221 211 206 210 211 208 204
345 343 341 341 339 336 332 329 327 326 323 320 298 334 259 270 251 257 258 186 224 197 206 162 205 242 15 104 49 134 171 92 127 165 159 175 196 194 195 190 185 177 204 220 169 209 175 243 216 245 246 245 242 246 257 275 294 295 297 293 295 285 278 283 300 318 353 313 300 287 284 299 301 298 302 192 209 233 244 237 234 227 220 211 215 217 210 208
345 345 342 340 339 335 332 329 328 325 325 326 326 235 206 248 211 172 195 264 258 268 284 290 233 273 283 267 254 63 76 193 245 198 160 171 166 183 195 192 199 214 232 221 182 210 193 229 231 233 243 249 256 257 269 286 293 293 282 274 269 278 276 275 271 9 338 296 283 289 293 289 289 291 295 249 215 234 234 229 227 221 219 220 218 219 212 208
339 341 343 342 339 335 331 330 329 324 319 312 300 341 26 5 335 345 334 289 277 264 260 264 264 270 269 318 345 315 263 216 225 207 183 168 189 174 185 194 198 218 218 226 237 105 216 242 243 249 257 263 265 265 270 270 268 271 277 273 273 265 273 273 278 321 126 299 296 289 284 281 281 284 285 267 235 246 233 231 227 228 222 219 223 227 217 203
340 341 342 340 338 333 329 327 328 320 306 289 22 61 75 35 340 324 301 301 293 278 261 264 271 262 264 266 270 260 269 278 216 209 144 190 183 211 162 203 204 225 207 203 217 216 227 241 251 251 273 263 258 266 261 263 268 259 259 267 270 268 274 278 265 147 196 273 288 299 293 288 284 281 281 273 253 263 251 237 235 230 226 223 226 226 220 203
344 341 341 339 337 331 326 323 323 310 328 16 39 52 49 6 334 285 258 279 268 258 252 241 226 237 258 233 221 175 215 224 236 206 178 197 197 222 184 204 221 229 207 197 225 224 242 245 245 245 223 253 259 251 259 258 252 257 254 250 251 265 271 282 139 166 196 275 295 298 293 289 283 270 261 261 261 266 252 234 232 229 226 227 226 226 220 211
346 342 340 339 336 331 319 325 305 285 8 347 46 51 38 345 346 297 247 276 315 302 211 204 255 292 338 351 132 197 209 206 225 240 161 189 217 206 236 224 233 230 229 219 229 244 247 358 79 129 226 234 257 240 243 248 252 235 241 255 265 266 267 269 286 301 313 281 249 274 275 274 264 259 251 231 171 250 217 213 226 229 234 230 237 237 222 218
344 343 341 338 336 329 316 321 314 358 330 243 85 54 3 342 339 332 276 270 223 224 154 185 233 256 77 161 181 207 197 212 227 296 164 204 205 190 225 231 245 238 236 229 234 244 252 233 153 180 228 241 258 254 235 256 263 263 250 252 264 272 269 272 272 292 292 293 145 324 305 289 302 298 284 281 233 239 218 232 227 221 219 220 226 227 225 219
341 340 342 339 334 331 309 296 25 336 321 23 44 6 342 335 334 285 272 274 286 114 194 160 209 127 221 146 167 214 158 191 159 220 193 218 213 225 176 226 211 243 236 230 237 253 270 248 217 247 252 248 250 261 265 253 266 266 266 242 245 254 264 271 273 271 268 276 129 343 299 295 290 284 266 263 265 270 279 256 265 246 217 215 223 223 218 213
339 337 338 338 334 332 327 31 337 313 291 106 16 343 332 328 333 216 267 228 253 64 299 76 212 80 258 55 207 168 219 115 134 153 200 194 199 198 230 209 188 238 328 126 235 236 217 229 232 243 253 253 248 245 234 237 255 259 269 256 263 259 257 257 270 270 271 272 278 264 268 289 286 277 285 267 263 277 275 275 267 257 236 219 221 220 219 217
334 334 334 334 329 326 295 305 318 327 5 3 331 329 326 327 249 232 255 307 237 162 156 151 32 146 281 130 225 257 350 330 219 125 215 162 221 166 232 232 216 215 189 203 242 93 190 206 222 223 225 243 247 249 264 216 245 270 350 259 256 257 263 270 271 272 274 284 280 276 232 267 272 284 261 241 265 268 271 272 266 263 243 226 224 220 217 219
332 330 330 332 322 306 273 267 301 287 356 337 323 317 323 313 235 267 283 274 80 263 22 123 14 229 2 175 221 242 290 275 329 100 151 170 216 300 209 236 248 257 190 217 247 156 197 221 202 227 246 252 255 255 258 240 252 248 260 251 264 261 257 262 265 266 270 255 264 270 272 272 279 294 296 184 239 285 291 279 281 275 268 254 224 220 219 219
327 327 325 332 316 205 255 245 244 279 324 329 313 306 296 237 221 226 191 245 37 164 273 38 227 332 322 285 197 12 322 75 32 121 165 200 178 227 327 357 240 225 228 222 247 267 33 112 43 245 241 257 281 280 259 245 246 298 263 265 255 245 249 244 246 264 271 264 257 262 267 260 280 297 301 287 271 322 324 295 286 291 290 247 235 224 218 217
324 323 320 330 308 336 308 270 86 352 330 321 312 290 243 220 250 254 215 23 307 67 218 56 40 303 4 11 310 29 30 36 77 235 169 192 173 227 240 196 214 239 232 232 233 238 234 192 208 229 242 258 271 271 247 245 257 252 255 259 269 259 247 241 247 235 257 261 261 257 251 240 257 269 245 136 319 315 309 296 300 312 318 333 233 235 226 223
322 318 314 321 280 297 273 318 340 335 331 316 305 273 228 213 203 220 229 93 258 53 335 39 46 358 335 357 266 3 354 165 32 353 314 185 178 211 193 263 160 230 225 217 234 203 234 232 228 239 209 243 243 253 243 216 221 232 249 253 259 268 263 258 245 234 227 259 321 11 260 267 249 255 269 287 280 283 276 287 292 294 296 297 301 271 250 243
319 314 309 282 226 240 250 283 308 318 316 299 284 229 211 228 242 213 245 224 307 350 88 293 338 329 329 296 89 354 313 317 353 347 306 197 265 106 60 19 359 287 281 34 298 254 254 219 215 222 214 216 238 248 236 207 190 224 226 233 247 262 259 264 262 271 277 266 286 256 59 269 287 282 272 261 264 272 300 296 282 281 282 282 284 259 248 238
314 314 309 307 275 247 278 295 297 311 306 282 259 198 235 230 241 52 264 240 16 162 298 340 318 290 267 311 47 336 248 106 332 5 287 209 229 189 132 60 18 309 248 269 261 271 273 230 202 206 175 80 227 246 323 322 282 250 259 267 274 267 272 273 274 274 278 289 274 164 255 265 275 38 46 2 346 322 284 272 279 278 275 289 309 294 275 262
312 299 280 280 239 227 259 293 297 292 266 274 221 212 197 228 250 237 226 239 48 342 305 349 294 307 279 162 118 55 344 106 25 311 359 257 147 37 25 35 31 353 290 268 216 280 260 276 125 67 60 263 303 34 315 292 270 259 299 277 258 265 277 266 286 287 297 303 294 237 228 295 278 345 259 218 251 260 282 287 303 329 346 347 332 329 314 277
302 328 306 270 340 5 325 309 283 231 258 240 214 210 225 248 273 142 330 345 320 318 327 291 252 268 264 227 143 127 75 297 44 283 113 76 41 56 67 44 23 11 348 282 17 273 292 247 61 323 181 32 9 316 273 289 270 110 244 237 291 1 288 299 279 284 295 264 264 262 265 247 247 246 246 247 251 341 15 15 20 18 11 2 356 348 343 336
327 320 307 350 4 9 7 332 259 243 240 245 220 227 243 222 18 10 42 337 18 334 301 292 153 286 266 216 167 112 11 285 86 309 166 147 152 43 42 92 10 17 12 331 313 57 296 302 293 298 257 108 353 326 289 254 277 287 259 287 335 270 315 263 277 277 264 277 278 277 276 280 275 275 93 49 44 25 14 15 16 19 14 11 6 359 353 344
316 313 275 342 12 351 4 358 274 251 245 220 225 244 33 259 85 355 18 322 244 268 289 267 278 193 256 258 207 50 21 290 35 295 305 235 36 356 11 23 61 20 352 20 294 77 330 289 146 128 290 309 323 258 214 212 233 270 297 25 282 261 243 208 242 247 270 263 277 271 281 276 279 284 29 52 35 23 15 11 14 13 12 6 7 5 2 357
289 289 223 52 359 350 302 296 268 248 212 213 229 237 201 309 56 19 28 352 341 314 275 250 284 127 302 249 288 34 2 276 31 292 280 105 244 51 37 333 65 20 3 313 267 338 281 280 254 138 274 353 267 245 268 244 165 192 257 260 220 273 263 265 244 278 278 277 279 266 269 270 277 14 55 56 36 30 17 11 10 6 6 3 3 2 1 0
329 280 136 46 351 339 303 274 257 212 220 225 233 236 58 281 76 50 20 345 347 279 266 309 233 273 217 300 335 293 76 293 291 295 268 54 305 72 34 32 343 342 0 326 310 341 289 237 273 242 179 295 272 270 274 304 302 286 271 275 236 227 292 293 276 257 262 272 265 280 268 260 107 95 86 71 43 30 23 6 1 359 0 360 360 359 358 357
303 273 58 17 350 333 289 254 222 206 219 214 323 300 301 286 38 114 9 353 291 234 306 291 281 252 336 275 229 171 263 235 227 252 242 229 236 189 78 7 341 332 306 246 240 21 280 251 265 284 284 265 280 34 319 301 293 283 287 281 292 286 268 261 267 241 253 256 258 257 263 268 109 138 104 87 36 24 18 359 352 355 354 352 350 351 355 354
306 282 67 3 353 323 292 235 201 273 262 243 252 168 229 19 251 278 269 179 260 278 163 286 266 286 266 256 289 284 275 273 254 260 221 263 120 292 90 309 341 347 310 307 343 56 329 307 276 273 270 278 292 292 269 264 259 261 269 269 277 281 283 264 268 270 273 258 277 269 280 274 137 153 117 60 358 5 6 355 347 343 346 345 343 344 346 349
341 296 335 329 338 316 276 250 176 206 231 298 62 235 199 235 271 297 268 244 261 175 254 233 253 239 236 263 251 257 242 262 238 250 113 193 107 81 90 39 345 253 278 236 228 119 291 264 273 270 276 277 251 250 237 239 237 221 194 331 286 265 278 276 279 310 290 271 258 257 252 260 157 158 117 356 352 341 334 341 339 336 342 337 341 343 344 344
311 303 306 32 318 308 262 240 230 221 221 157 235 249 166 269 254 245 246 246 265 246 260 267 223 230 310 194 236 246 179 254 192 248 219 215 165 102 90 74 317 261 304 54 304 45 292 232 283 290 287 276 230 175 201 181 252 237 270 283 307 298 278 294 295 277 268 256 262 265 264 258 143 218 291 307 314 321 321 327 334 329 331 337 340 343 338 340
285 250 243 302 355 265 266 2 301 284 226 249 250 243 215 225 201 264 287 267 203 262 264 254 270 137 226 189 248 244 230 249 276 190 331 219 153 137 88 28 5 301 85 55 326 330 268 279 281 274 278 277 263 258 280 239 241 311 304 277 260 276 285 286 265 257 260 260 261 256 259 261 262 295 323 313 311 312 315 321 326 324 328 330 339 335 335 333
350 323 48 169 39 132 88 14 332 309 283 248 266 252 242 255 207 191 234 260 250 263 251 287 258 241 249 211 232 231 230 219 237 251 215 217 196 184 162 36 325 281 71 41 308 266 277 275 263 265 268 269 281 298 313 318 291 279 280 289 287 278 274 272 276 263 259 274 273 260 262 276 279 288 301 302 311 314 315 317 319 325 327 326 319 321 319 322
303 264 347 340 325 129 74 50 3 286 274 346 267 67 244 239 260 263 174 250 160 256 258 236 261 236 233 229 250 250 240 246 218 255 247 255 254 248 146 278 249 206 126 233 217 268 254 262 252 257 257 264 276 279 287 285 277 273 272 270 272 274 277 275 264 262 280 286 268 260 269 270 272 275 280 289 294 298 303 310 318 324 323 318 313 309 310 311
268 74 3 41 304 324 312 102 2 326 355 273 267 334 268 267 233 229 160 236 296 227 245 186 217 240 253 246 257 246 230 235 240 248 250 246 270 224 246 197 246 150 209 245 247 261 272 266 270 271 267 269 273 276 275 274 271 272 271 270 269 269 265 261 262 265 266 262 271 281 280 276 279 280 284 284 292 292 293 302 310 311 308 308 309 308 309 313
267 335 291 358 276 356 332 334 314 315 300 285 284 266 262 261 256 259 308 272 223 211 229 252 229 216 221 222 234 254 246 251 240 243 251 258 244 272 267 268 244 230 234 241 239 273 272 258 270 273 276 274 272 269 271 271 271 269 266 266 266 264 263 264 266 269 269 267 268 274 276 276 281 283 283 285 287 288 288 293 295 294 296 301 303 305 307 312
359 4 328 329 275 282 264 273 288 289 266 213 259 250 268 266 264 257 232 248 263 242 186 246 251 233 231 226 234 243 269 286 294 241 235 246 257 243 269 274 286 192 260 263 261 234 297 273 311 274 274 272 270 270 268 266 267 268 268 268 266 269 272 267 265 264 266 267 270 274 276 276 276 276 274 279 281 284 290 287 287 294 298 301 305 309 313 320
333 323 328 300 295 289 272 229 238 256 260 234 230 253 245 258 268 310 272 292 266 271 263 259 343 272 232 243 243 253 292 316 303 279 289 256 262 282 279 270 167 269 226 237 242 269 251 276 281 277 274 270 268 269 274 275 276 274 270 264 267 267 262 259 259 258 260 267 271 272 270 272 276 283 295 284 289 291 291 296 299 302 306 311 312 313 316 318
293 259 257 280 274 227 259 247 245 249 246 245 294 293 310 266 291 280 273 207 132 68 52 8 343 308 255 235 247 265 339 316 295 303 291 288 276 273 261 266 267 263 267 266 270 269 267 273 273 275 271 273 280 282 281 278 272 262 254 256 251 251 256 262 265 266 265 271 265 264 265 279 293 300 292 293 297 300 303 307 314 310 309 308 307 309 312 316